Find Starlink 3591

NORAD ID: 51870 Int'l Des: 2022-022 Owner: SPXS Country: US Constellation: starlink operational
LEOCIRCULAR

实时位置

正在加载3D地球...

关于 Starlink 3591

正在加载描述...

即将过境

Passes for default location (London). Set your location on the main map for personalized predictions.

高度历史

Loading altitude history...

两行轨道根数

1 51870U 22022U 26127.24791216 .00000153 00000-0 27731-4 0 9992
2 51870 53.2160 106.2428 0001210 69.9898 290.1224 15.08836436232007
Epoch: May 7, 2026 • Age: 8 hours

当前状态

高度 559.1 km
速度 7.58 km/s
星下点 -53.37°S, 53.38°W
发射日期 Mar 3, 2022
运行时间 4.1 years
类型 internet

技术详情

分类 Payload
质量 297.00 kg
干质量 275.00 kg
总质量 297.00 kg
长度 0.20 m
直径 2.80 m
跨度 9.00 m
形状 Box + pan
制造商 SPXS
平台类型 Starlink
阶段状态 In Orbit
所有者/国家 SPXS/US

Most Searched